When you browse on this site, cookies collect data to enhance your experience and personalize the content and advertising you see.
Visit our Privacy Policy to learn more. By continuing to use the site, you agree to this use of cookies and data.
  • Em Portugal
  • Lista de países
  • Para 7 dias
  • Temperatura da água
  • Mapas de satélite
  • Mapa do tempo
  • Widgets de tempo
  • user-avatar
    Iniciar Sessão

    Previsão horária em Krasnye Prudy

    Hoje, 18 Fevereiro, Segunda-feira

    Tempo Temperatura Precipitação Vento Pressão Humidade
    00:00 -4°C° 0 mm 3 m/s 756 mmHg 87%
    01:00 -5°C° 0 mm 3 m/s 757 mmHg 88%
    02:00 -5°C° 0 mm 2 m/s 757 mmHg 92%
    03:00 -6°C° 0 mm 2 m/s 757 mmHg 93%
    04:00 -6°C° 0 mm 2 m/s 758 mmHg 93%
    05:00 -4°C° 0 mm 1 m/s 758 mmHg 93%
    06:00 -4°C° 0 mm 1 m/s 759 mmHg 92%
    07:00 -6°C° 0 mm 1 m/s 759 mmHg 92%
    08:00 -6°C° 0 mm 1 m/s 759 mmHg 90%
    09:00 -3°C° 0 mm 1 m/s 759 mmHg 84%
    10:00 -2°C° 0 mm 1 m/s 760 mmHg 79%
    11:00 -2°C° 0 mm 0 m/s 760 mmHg 74%
    12:00 0°C° 0 mm 1 m/s 759 mmHg 72%
    13:00 0°C° 0 mm 1 m/s 759 mmHg 71%
    14:00 -1°C° 0 mm 2 m/s 759 mmHg 70%
    15:00 -2°C° 0 mm 2 m/s 759 mmHg 73%
    16:00 -3°C° 0 mm 2 m/s 758 mmHg 77%
    17:00 -3°C° 0 mm 2 m/s 758 mmHg 80%
    18:00 -4°C° 0 mm 3 m/s 757 mmHg 78%
    19:00 -4°C° 0 mm 3 m/s 757 mmHg 76%
    20:00 -4°C° 0 mm 4 m/s 757 mmHg 74%
    21:00 -4°C° 0 mm 4 m/s 756 mmHg 75%
    22:00 -4°C° 0 mm 4 m/s 756 mmHg 76%
    23:00 -4°C° 0 mm 4 m/s 755 mmHg 77%

    Amanhã, 19 Fevereiro, Terça-feira

    Tempo Temperatura Precipitação Vento Pressão Humidade
    00:00 -5°C° 0 mm 5 m/s 755 mmHg 79%
    01:00 -4°C° 0 mm 5 m/s 754 mmHg 82%
    02:00 -4°C° 0 mm 5 m/s 754 mmHg 84%
    03:00 -4°C° 0 mm 5 m/s 753 mmHg 85%
    04:00 -2°C° 0 mm 5 m/s 752 mmHg 87%
    05:00 -2°C° 0 mm 5 m/s 752 mmHg 88%
    06:00 -2°C° 0 mm 5 m/s 751 mmHg 89%
    07:00 -1°C° 0 mm 5 m/s 751 mmHg 89%
    08:00 -1°C° 0 mm 5 m/s 750 mmHg 90%
    09:00 -1°C° 0 mm 5 m/s 750 mmHg 91%
    10:00 -1°C° 0 mm 5 m/s 749 mmHg 91%
    11:00 0°C° 0 mm 5 m/s 749 mmHg 92%
    12:00 0°C° 0 mm 5 m/s 748 mmHg 91%
    13:00 0°C° 0 mm 5 m/s 748 mmHg 90%
    14:00 0°C° 0 mm 5 m/s 747 mmHg 89%
    15:00 0°C° 0 mm 5 m/s 746 mmHg 89%
    16:00 0°C° 0 mm 5 m/s 745 mmHg 89%
    17:00 0°C° 0 mm 4 m/s 745 mmHg 89%
    18:00 0°C° 0 mm 4 m/s 744 mmHg 89%
    19:00 0°C° 0 mm 5 m/s 743 mmHg 89%
    20:00 0°C° 0 mm 5 m/s 743 mmHg 89%
    21:00 0°C° 0.1 mm 5 m/s 742 mmHg 89%
    22:00 0°C° 0.1 mm 5 m/s 741 mmHg 89%
    23:00 0°C° 0.1 mm 5 m/s 741 mmHg 89%

    Depois de amanhã, 20 Fevereiro, Quarta-feira

    Tempo Temperatura Precipitação Vento Pressão Humidade
    00:00 0°C° 0.2 mm 5 m/s 741 mmHg 90%
    01:00 +1°C° 0.2 mm 4 m/s 741 mmHg 91%
    02:00 +1°C° 0.2 mm 4 m/s 741 mmHg 92%
    03:00 +1°C° 0 mm 4 m/s 741 mmHg 92%
    04:00 +1°C° 0 mm 4 m/s 741 mmHg 92%
    05:00 0°C° 0 mm 4 m/s 741 mmHg 92%
    06:00 0°C° 0.2 mm 4 m/s 740 mmHg 91%
    07:00 0°C° 0.2 mm 4 m/s 740 mmHg 91%
    08:00 0°C° 0.2 mm 4 m/s 740 mmHg 90%
    09:00 0°C° 0 mm 4 m/s 740 mmHg 89%
    10:00 +1°C° 0 mm 5 m/s 741 mmHg 87%
    11:00 +1°C° 0 mm 5 m/s 741 mmHg 85%
    12:00 +1°C° 0.1 mm 5 m/s 741 mmHg 85%
    13:00 +1°C° 0.1 mm 5 m/s 741 mmHg 84%
    14:00 +1°C° 0.1 mm 5 m/s 741 mmHg 84%
    15:00 +1°C° 0.1 mm 5 m/s 741 mmHg 83%
    16:00 0°C° 0.1 mm 5 m/s 741 mmHg 83%
    17:00 -1°C° 0.1 mm 6 m/s 741 mmHg 82%
    18:00 -2°C° 0.1 mm 6 m/s 741 mmHg 80%
    19:00 -3°C° 0.1 mm 6 m/s 742 mmHg 77%
    20:00 -3°C° 0.1 mm 6 m/s 742 mmHg 75%
    21:00 -4°C° 0.1 mm 6 m/s 743 mmHg 76%
    22:00 -4°C° 0.1 mm 6 m/s 744 mmHg 77%
    23:00 -4°C° 0.1 mm 6 m/s 744 mmHg 77%

    21 Fevereiro, Quinta-feira

    Tempo Temperatura Precipitação Vento Pressão Humidade
    00:00 -4°C° 0 mm 6 m/s 745 mmHg 76%
    01:00 -5°C° 0 mm 6 m/s 746 mmHg 75%
    02:00 -5°C° 0 mm 6 m/s 747 mmHg 75%
    03:00 -6°C° 0.1 mm 6 m/s 747 mmHg 72%
    04:00 -6°C° 0.1 mm 6 m/s 748 mmHg 70%
    05:00 -6°C° 0.1 mm 6 m/s 748 mmHg 68%
    06:00 -8°C° 0 mm 6 m/s 749 mmHg 68%
    07:00 -8°C° 0 mm 6 m/s 750 mmHg 67%
    08:00 -9°C° 0 mm 6 m/s 751 mmHg 66%
    09:00 -8°C° 0 mm 5 m/s 751 mmHg 64%
    10:00 -8°C° 0 mm 5 m/s 752 mmHg 63%
    11:00 -8°C° 0 mm 5 m/s 753 mmHg 61%
    12:00 -7°C° 0 mm 5 m/s 753 mmHg 60%
    13:00 -7°C° 0 mm 5 m/s 754 mmHg 59%
    14:00 -7°C° 0 mm 4 m/s 754 mmHg 58%
    15:00 -7°C° 0 mm 4 m/s 755 mmHg 59%
    16:00 -8°C° 0 mm 4 m/s 756 mmHg 61%
    17:00 -8°C° 0 mm 4 m/s 756 mmHg 62%
    18:00 -8°C° 0 mm 4 m/s 757 mmHg 63%
    19:00 -9°C° 0 mm 4 m/s 758 mmHg 64%
    20:00 -9°C° 0 mm 4 m/s 759 mmHg 64%
    21:00 -8°C° 0 mm 3 m/s 760 mmHg 65%
    22:00 -9°C° 0 mm 3 m/s 760 mmHg 66%
    23:00 -9°C° 0 mm 3 m/s 761 mmHg 67%

    22 Fevereiro, Sexta-feira

    Tempo Temperatura Precipitação Vento Pressão Humidade
    00:00 -9°C° 0 mm 3 m/s 762 mmHg 68%
    01:00 -8°C° 0 mm 2 m/s 763 mmHg 70%
    02:00 -9°C° 0 mm 2 m/s 763 mmHg 71%
    03:00 -9°C° 0 mm 2 m/s 764 mmHg 71%
    04:00 -10°C° 0 mm 3 m/s 765 mmHg 71%
    05:00 -10°C° 0 mm 3 m/s 765 mmHg 71%
    06:00 -10°C° 0 mm 3 m/s 766 mmHg 72%
    07:00 -10°C° 0 mm 3 m/s 767 mmHg 72%
    08:00 -10°C° 0 mm 3 m/s 768 mmHg 72%
    09:00 -9°C° 0 mm 3 m/s 768 mmHg 68%
    10:00 -8°C° 0 mm 3 m/s 769 mmHg 64%
    11:00 -7°C° 0 mm 3 m/s 769 mmHg 60%
    12:00 -6°C° 0 mm 3 m/s 769 mmHg 57%
    13:00 -6°C° 0 mm 3 m/s 769 mmHg 54%
    14:00 -5°C° 0 mm 3 m/s 769 mmHg 52%
    15:00 -5°C° 0 mm 3 m/s 769 mmHg 54%
    16:00 -6°C° 0 mm 3 m/s 770 mmHg 56%
    17:00 -5°C° 0 mm 2 m/s 770 mmHg 58%
    18:00 -6°C° 0 mm 2 m/s 770 mmHg 62%
    19:00 -6°C° 0 mm 2 m/s 770 mmHg 66%
    20:00 -6°C° 0 mm 1 m/s 770 mmHg 70%
    21:00 -6°C° 0 mm 1 m/s 770 mmHg 71%
    22:00 -6°C° 0 mm 1 m/s 770 mmHg 73%
    23:00 -6°C° 0 mm 1 m/s 769 mmHg 74%

    23 Fevereiro, Sábado

    Tempo Temperatura Precipitação Vento Pressão Humidade
    00:00 -6°C° 0 mm 1 m/s 769 mmHg 73%
    01:00 -6°C° 0 mm 1 m/s 768 mmHg 72%
    02:00 -7°C° 0 mm 2 m/s 768 mmHg 71%
    03:00 -7°C° 0 mm 2 m/s 767 mmHg 69%
    04:00 -7°C° 0 mm 3 m/s 766 mmHg 66%
    05:00 -7°C° 0 mm 3 m/s 764 mmHg 63%
    06:00 -7°C° 0.9 mm 3 m/s 764 mmHg 72%
    07:00 -8°C° 0.9 mm 4 m/s 763 mmHg 82%
    08:00 -8°C° 0.9 mm 4 m/s 762 mmHg 91%
    09:00 -7°C° 0.3 mm 4 m/s 761 mmHg 90%
    10:00 -7°C° 0.3 mm 4 m/s 760 mmHg 89%
    11:00 -5°C° 0.3 mm 4 m/s 759 mmHg 88%
    12:00 -5°C° 0.9 mm 4 m/s 759 mmHg 90%
    13:00 -4°C° 0.9 mm 3 m/s 758 mmHg 91%
    14:00 -4°C° 0.9 mm 3 m/s 757 mmHg 93%
    15:00 -2°C° 0.1 mm 2 m/s 757 mmHg 94%
    16:00 -2°C° 0.1 mm 2 m/s 757 mmHg 95%
    17:00 -1°C° 0.1 mm 2 m/s 757 mmHg 96%
    18:00 -1°C° 0 mm 2 m/s 757 mmHg 96%
    19:00 +1°C° 0 mm 2 m/s 758 mmHg 97%
    20:00 +1°C° 0 mm 2 m/s 758 mmHg 97%
    21:00 +1°C° 0 mm 2 m/s 758 mmHg 97%
    22:00 +1°C° 0 mm 2 m/s 758 mmHg 97%
    23:00 +1°C° 0 mm 2 m/s 758 mmHg 97%
    Mostrar mais